Location: Berlin
(52.5200°N, 13.4050°E)
Time: 10:27:23
(UTC+02:00)

ISS - Visible Passes

Search period start: 09 May 2021 00:00
Search period end: 19 May 2021 00:00
Orbit: 418 x 421 km, 51.6° (Epoch: 09 May)

Date Brightness Start Highest point End Pass type
(mag) Time Alt. Az. Time Alt. Az. Time Alt. Az.
09 May -2.9 02:03:26 38° ESE 02:03:26 38° ESE 02:05:57 10° E visible
09 May -3.8 03:36:22 13° W 03:39:22 79° S 03:42:45 10° E visible
10 May -1.6 01:17:27 17° E 01:17:27 17° E 01:18:28 10° E visible
10 May -3.9 02:50:22 29° WSW 02:51:56 76° S 02:55:19 10° E visible
10 May -3.7 04:25:19 10° W 04:28:40 61° SSW 04:32:01 10° ESE visible
11 May -3.9 02:04:20 66° SSW 02:04:31 68° S 02:07:53 10° E visible
11 May -3.8 03:37:54 10° W 03:41:16 70° S 03:44:38 10° ESE visible
12 May -2.8 01:18:15 35° ESE 01:18:15 35° ESE 01:20:26 10° E visible
12 May -3.9 02:51:11 15° W 02:53:50 77° S 02:57:13 10° E visible
12 May -3.2 04:27:17 10° W 04:30:28 38° SSW 04:33:38 10° SE visible
13 May -1.6 00:32:05 17° E 00:32:05 17° E 00:32:59 10° E visible
13 May -3.9 02:05:00 32° W 02:06:24 79° S 02:09:48 10° E visible
13 May -3.6 03:39:48 10° W 03:43:06 49° SSW 03:46:23 10° ESE visible
14 May -3.9 01:18:35 65° SW 01:18:58 76° S 01:22:21 10° E visible
14 May -3.8 02:52:21 10° W 02:55:42 60° SSW 02:59:02 10° ESE visible
14 May -2.8 22:52:08 10° SSW 22:55:02 27° SSE 22:57:56 10° E visible
15 May -3.9 00:28:10 10° WSW 00:31:32 68° S 00:34:53 10° E visible
15 May -3.9 02:04:54 10° W 02:08:17 70° S 02:11:39 10° ESE visible
15 May -2.9 03:41:49 10° W 03:44:48 29° SSW 03:47:46 10° SSE visible
15 May -2.4 22:05:13 10° SSW 22:07:44 20° SE 22:10:16 10° E visible
15 May -3.8 23:40:47 10° WSW 23:44:06 58° SSE 23:47:27 10° E visible
16 May -3.9 01:17:27 10° W 01:20:51 77° S 01:24:13 10° E visible
16 May -3.3 02:54:17 10° W 02:57:28 38° SSW 03:00:37 10° SE visible
16 May -3.5 22:53:27 10° SW 22:56:43 46° SSE 22:59:58 10° E visible
17 May -3.9 00:30:01 10° W 00:33:23 79° S 00:36:46 10° E visible
17 May -3.6 02:06:48 10° W 02:10:05 49° SSW 02:13:22 10° SE visible
17 May -2.1 03:44:17 10° WSW 03:46:20 15° SW 03:48:24 10° S visible
17 May -3.2 22:06:12 10° SW 22:09:20 36° SSE 22:12:27 10° E visible
17 May -3.9 23:42:34 10° W 23:45:56 76° S 23:49:19 10° E visible
18 May -3.8 01:19:20 10° W 01:22:40 60° SSW 01:22:50 59° S visible
18 May -3.8 22:55:08 10° WSW 22:58:29 68° S 23:01:51 10° E visible
